Flag for Germany Weather past 2 weeks in Neustadt an der Weinstraße, Rhineland-Palatinate, Germany

Now
93 °F

Sunny.


Feels Like: 92 °F
Forecast: 67 / 95 °F
Wind: 5 mph from Southeast

Location: Baden Wurttemberg - Neuostheim

Current Time: Jul 2, 2015 at 9:06:33 PM

Latest Report: Jul 2, 2015 at 8:20 PM


Visibility: 10 mi

Pressure: 30.07 "Hg

Humidity: 30%

Dew point: 57 °F

Location of Neustadt an der WeinstraßeLocation

Historic Weather in Neustadt an der Weinstraße — Graph

°F

Neustadt an der Weinstraße temperature yesterday

Maximum temperature yesterday: 93 °F (at 6:20 PM)
Minimum temperature yesterday: 63 °F (at 5:20 AM)
Average temperature yesterday: 83 °F

Past Weeks' High & Low Weather Summary

 TemperatureHumidityPressure
High97 °F (Jul 2, 4:50 PM)100% (Jun 18, 10:20 AM)30.21 "Hg (Jun 18, 10:20 AM)
Low50 °F (Jun 23, 5:20 AM)24% (Jul 1, 2:50 PM)29.74 "Hg (Jun 22, 9:20 PM)
Average68 °F59%30.08 "Hg
* Reported Jun 17 7:20 PM — Jul 2 7:50 PM, Neustadt an der Weinstraße, Weather by CustomWeather, © 2015

Note: Actual official high and low records may vary slightly from our data, if they occured in-between our weather recording intervals... More about our weather records

Advertising

Neustadt an der Weinstraße weather history for previous 24 hours

 ConditionsComfort  
Time TempWeatherWind HumidityBarometerVisibility
7:50 PM
Thu, Jul 2
93 °FPassing clouds.5 mph30%30.07 "HgN/A
7:20 PM95 °FSunny.7 mph28%30.07 "Hg10 mi
6:50 PM95 °FPassing clouds.6 mph28%30.07 "HgN/A
6:20 PM95 °FPassing clouds.8 mph28%30.07 "HgN/A
5:50 PM97 °FPassing clouds.7 mph27%30.07 "HgN/A
5:20 PM95 °FPassing clouds.8 mph26%30.07 "HgN/A
4:50 PM97 °FSunny.6 mph27%30.09 "Hg10 mi
4:20 PM95 °FSunny.7 mph28%30.09 "Hg10 mi
3:50 PM95 °FPassing clouds.5 mph28%30.09 "HgN/A
3:20 PM95 °FPassing clouds.5 mph28%30.09 "HgN/A
2:50 PM95 °FPassing clouds.7 mph30%30.09 "HgN/A
2:20 PM93 °FPassing clouds.7 mph30%30.09 "HgN/A
1:50 PM93 °FPassing clouds.8 mph28%30.09 "HgN/A
1:20 PM91 °FPassing clouds.8 mph32%30.09 "HgN/A
12:50 PM91 °FPassing clouds.8 mph36%30.12 "HgN/A
12:20 PM90 °FPassing clouds.7 mph38%30.12 "HgN/A
11:50 AM88 °FSunny.7 mph38%30.12 "Hg10 mi
11:20 AM88 °FPassing clouds.8 mph38%30.12 "HgN/A
10:50 AM86 °FPassing clouds.7 mph40%30.12 "HgN/A
10:20 AM86 °FSunny.5 mph40%30.12 "Hg10 mi
9:50 AM84 °FSunny.2 mph45%30.12 "Hg10 mi
9:20 AM82 °FSunny.3 mph48%30.12 "Hg10 mi
8:50 AM81 °FSunny.2 mph51%30.12 "Hg10 mi
8:20 AM79 °FSunny.2 mph58%30.12 "Hg10 mi
7:50 AM79 °FSunny.2 mph61%30.09 "Hg10 mi
7:20 AM75 °FSunny.2 mph69%30.09 "Hg10 mi
6:50 AM75 °FSunny.2 mph69%30.09 "Hg10 mi
6:20 AM72 °FClear.No wind73%30.09 "Hg10 mi
5:50 AM72 °FPassing clouds.1 mph73%30.09 "HgN/A
9:20 PM
Wed, Jul 1
86 °FSunny.3 mph40%30.04 "Hg10 mi
Weather by CustomWeather, © 2015

See weather overviewHow to use our weather pages